• în Republica Moldova
  • Lista ţărilor
  • Pe 7 zile
  • Temperatura apei
  • Hartă satelitară
  • Meteo pe hartă
  • Widget-uri
  • user-avatar
    Intrare

    Meteo pe oră la Biskira

    Astăzi, 30 Aprilie, Duminică

    Timp Temperatura Precipitaţii Vânt Presiune Umiditate
    00:00 +25°C° 0,2 mm 3 m/s 749 mmHg 41%
    01:00 +25°C° 0,2 mm 3 m/s 749 mmHg 43%
    02:00 +25°C° 0,2 mm 3 m/s 750 mmHg 45%
    03:00 +24°C° 0,2 mm 3 m/s 750 mmHg 46%
    04:00 +24°C° 0,2 mm 3 m/s 750 mmHg 49%
    05:00 +22°C° 0,2 mm 3 m/s 750 mmHg 51%
    06:00 +22°C° 0,2 mm 3 m/s 750 mmHg 54%
    07:00 +23°C° 0,2 mm 2 m/s 751 mmHg 51%
    08:00 +24°C° 0,2 mm 2 m/s 751 mmHg 49%
    09:00 +25°C° 0,2 mm 2 m/s 751 mmHg 47%
    10:00 +26°C° 0 mm 2 m/s 750 mmHg 41%
    11:00 +28°C° 0 mm 2 m/s 750 mmHg 35%
    12:00 +30°C° 0 mm 3 m/s 750 mmHg 29%
    13:00 +30°C° 0 mm 3 m/s 749 mmHg 28%
    14:00 +31°C° 0 mm 3 m/s 749 mmHg 27%
    15:00 +31°C° 0 mm 3 m/s 748 mmHg 25%
    16:00 +31°C° 0 mm 3 m/s 749 mmHg 26%
    17:00 +31°C° 0 mm 3 m/s 749 mmHg 27%
    18:00 +30°C° 0 mm 2 m/s 749 mmHg 28%
    19:00 +29°C° 0 mm 2 m/s 750 mmHg 31%
    20:00 +29°C° 0 mm 3 m/s 750 mmHg 34%
    21:00 +28°C° 0 mm 3 m/s 751 mmHg 37%
    22:00 +27°C° 0 mm 3 m/s 751 mmHg 41%
    23:00 +26°C° 0 mm 3 m/s 751 mmHg 45%

    Mâine, 1 Mai, Luni

    Timp Temperatura Precipitaţii Vânt Presiune Umiditate
    00:00 +26°C° 0 mm 3 m/s 751 mmHg 48%
    01:00 +25°C° 0 mm 3 m/s 751 mmHg 50%
    02:00 +24°C° 0 mm 3 m/s 751 mmHg 52%
    03:00 +24°C° 0 mm 3 m/s 751 mmHg 53%
    04:00 +24°C° 0 mm 3 m/s 752 mmHg 53%
    05:00 +23°C° 0 mm 2 m/s 752 mmHg 53%
    06:00 +23°C° 0 mm 2 m/s 752 mmHg 53%
    07:00 +24°C° 0 mm 3 m/s 753 mmHg 49%
    08:00 +25°C° 0 mm 3 m/s 753 mmHg 44%
    09:00 +27°C° 0 mm 3 m/s 753 mmHg 40%
    10:00 +27°C° 0 mm 3 m/s 753 mmHg 37%
    11:00 +28°C° 0 mm 3 m/s 753 mmHg 34%
    12:00 +29°C° 0 mm 2 m/s 752 mmHg 31%
    13:00 +30°C° 0 mm 2 m/s 752 mmHg 30%
    14:00 +30°C° 0 mm 2 m/s 752 mmHg 28%
    15:00 +31°C° 0 mm 2 m/s 751 mmHg 27%
    16:00 +31°C° 0 mm 2 m/s 751 mmHg 27%
    17:00 +30°C° 0 mm 1 m/s 751 mmHg 27%
    18:00 +30°C° 0 mm 1 m/s 751 mmHg 28%
    19:00 +29°C° 0 mm 1 m/s 752 mmHg 30%
    20:00 +28°C° 0 mm 2 m/s 752 mmHg 32%
    21:00 +28°C° 0 mm 2 m/s 753 mmHg 34%
    22:00 +27°C° 0 mm 2 m/s 753 mmHg 37%
    23:00 +26°C° 0 mm 3 m/s 753 mmHg 41%

    Poimâine, 2 Mai, Marţi

    Timp Temperatura Precipitaţii Vânt Presiune Umiditate
    00:00 +25°C° 0 mm 4 m/s 753 mmHg 44%
    01:00 +25°C° 0 mm 3 m/s 753 mmHg 48%
    02:00 +24°C° 0 mm 3 m/s 753 mmHg 51%
    03:00 +22°C° 0 mm 3 m/s 753 mmHg 54%
    04:00 +22°C° 0 mm 3 m/s 753 mmHg 53%
    05:00 +22°C° 0 mm 3 m/s 753 mmHg 52%
    06:00 +22°C° 0 mm 3 m/s 754 mmHg 51%
    07:00 +23°C° 0 mm 4 m/s 754 mmHg 47%
    08:00 +25°C° 0 mm 4 m/s 754 mmHg 42%
    09:00 +27°C° 0 mm 5 m/s 754 mmHg 37%
    10:00 +28°C° 0 mm 5 m/s 754 mmHg 35%
    11:00 +29°C° 0 mm 5 m/s 753 mmHg 33%
    12:00 +29°C° 0 mm 5 m/s 753 mmHg 31%
    13:00 +30°C° 0 mm 5 m/s 752 mmHg 30%
    14:00 +30°C° 0 mm 4 m/s 752 mmHg 30%
    15:00 +32°C° 0 mm 4 m/s 752 mmHg 29%
    16:00 +30°C° 0 mm 3 m/s 752 mmHg 30%
    17:00 +30°C° 0 mm 3 m/s 752 mmHg 31%
    18:00 +29°C° 0 mm 3 m/s 752 mmHg 32%
    19:00 +29°C° 0,2 mm 3 m/s 752 mmHg 34%
    20:00 +28°C° 0,2 mm 3 m/s 753 mmHg 37%
    21:00 +27°C° 0,2 mm 3 m/s 753 mmHg 40%
    22:00 +26°C° 0,1 mm 3 m/s 753 mmHg 42%
    23:00 +26°C° 0,1 mm 3 m/s 753 mmHg 44%

    3 Mai, Miercuri

    Timp Temperatura Precipitaţii Vânt Presiune Umiditate
    00:00 +25°C° 0,1 mm 3 m/s 753 mmHg 47%
    01:00 +25°C° 0 mm 3 m/s 753 mmHg 48%
    02:00 +24°C° 0 mm 3 m/s 753 mmHg 49%
    03:00 +24°C° 0 mm 3 m/s 753 mmHg 50%
    04:00 +24°C° 0 mm 3 m/s 753 mmHg 49%
    05:00 +24°C° 0 mm 3 m/s 753 mmHg 49%
    06:00 +22°C° 0 mm 4 m/s 753 mmHg 49%
    07:00 +23°C° 0 mm 4 m/s 753 mmHg 45%
    08:00 +25°C° 0 mm 4 m/s 754 mmHg 42%
    09:00 +26°C° 0 mm 4 m/s 754 mmHg 38%
    10:00 +27°C° 0 mm 4 m/s 753 mmHg 36%
    11:00 +28°C° 0 mm 4 m/s 753 mmHg 33%
    12:00 +29°C° 0 mm 4 m/s 753 mmHg 30%
    13:00 +30°C° 0 mm 3 m/s 752 mmHg 29%
    14:00 +30°C° 0 mm 3 m/s 752 mmHg 28%
    15:00 +31°C° 0 mm 2 m/s 751 mmHg 27%
    16:00 +30°C° 0,1 mm 2 m/s 751 mmHg 28%
    17:00 +30°C° 0,1 mm 2 m/s 751 mmHg 29%
    18:00 +30°C° 0,1 mm 2 m/s 751 mmHg 31%
    19:00 +29°C° 0,4 mm 2 m/s 752 mmHg 34%
    20:00 +28°C° 0,4 mm 2 m/s 752 mmHg 37%
    21:00 +27°C° 0,4 mm 2 m/s 752 mmHg 40%
    22:00 +27°C° 0,1 mm 2 m/s 752 mmHg 41%
    23:00 +26°C° 0,1 mm 2 m/s 752 mmHg 42%

    4 Mai, Joi

    Timp Temperatura Precipitaţii Vânt Presiune Umiditate
    00:00 +26°C° 0,1 mm 2 m/s 752 mmHg 43%
    01:00 +25°C° 0 mm 2 m/s 751 mmHg 44%
    02:00 +25°C° 0 mm 2 m/s 751 mmHg 45%
    03:00 +24°C° 0 mm 2 m/s 751 mmHg 46%
    04:00 +25°C° 0 mm 2 m/s 751 mmHg 45%
    05:00 +25°C° 0 mm 2 m/s 751 mmHg 44%
    06:00 +25°C° 0 mm 3 m/s 751 mmHg 42%
    07:00 +26°C° 0 mm 3 m/s 751 mmHg 39%
    08:00 +28°C° 0 mm 3 m/s 751 mmHg 35%
    09:00 +29°C° 0 mm 4 m/s 751 mmHg 31%
    10:00 +30°C° 0 mm 4 m/s 751 mmHg 29%
    11:00 +32°C° 0 mm 4 m/s 750 mmHg 27%
    12:00 +33°C° 0 mm 4 m/s 750 mmHg 25%
    13:00 +34°C° 0 mm 3 m/s 749 mmHg 24%
    14:00 +34°C° 0 mm 3 m/s 749 mmHg 23%
    15:00 +35°C° 0 mm 3 m/s 748 mmHg 22%
    16:00 +34°C° 0 mm 3 m/s 748 mmHg 22%
    17:00 +34°C° 0 mm 3 m/s 748 mmHg 23%
    18:00 +34°C° 0 mm 3 m/s 748 mmHg 24%
    19:00 +33°C° 0 mm 3 m/s 749 mmHg 25%
    20:00 +32°C° 0 mm 4 m/s 749 mmHg 27%
    21:00 +30°C° 0 mm 4 m/s 750 mmHg 28%
    22:00 +29°C° 0 mm 3 m/s 750 mmHg 29%
    23:00 +29°C° 0 mm 3 m/s 750 mmHg 30%

    5 Mai, Vineri

    Timp Temperatura Precipitaţii Vânt Presiune Umiditate
    00:00 +28°C° 0 mm 3 m/s 750 mmHg 31%
    01:00 +28°C° 0 mm 3 m/s 750 mmHg 32%
    02:00 +28°C° 0 mm 3 m/s 749 mmHg 32%
    03:00 +27°C° 0 mm 3 m/s 749 mmHg 33%
    04:00 +27°C° 0 mm 3 m/s 750 mmHg 32%
    05:00 +28°C° 0 mm 3 m/s 750 mmHg 32%
    06:00 +28°C° 0 mm 3 m/s 750 mmHg 31%
    07:00 +29°C° 0 mm 3 m/s 750 mmHg 28%
    08:00 +32°C° 0 mm 4 m/s 750 mmHg 25%
    09:00 +33°C° 0 mm 4 m/s 750 mmHg 22%
    10:00 +34°C° 0 mm 4 m/s 750 mmHg 20%
    11:00 +35°C° 0 mm 4 m/s 750 mmHg 19%
    12:00 +37°C° 0 mm 4 m/s 749 mmHg 17%
    13:00 +37°C° 0 mm 4 m/s 749 mmHg 17%
    14:00 +38°C° 0 mm 4 m/s 748 mmHg 16%
    15:00 +38°C° 0 mm 3 m/s 748 mmHg 15%
    16:00 +37°C° 0 mm 3 m/s 748 mmHg 16%
    17:00 +37°C° 0 mm 3 m/s 748 mmHg 17%
    18:00 +36°C° 0 mm 3 m/s 748 mmHg 18%
    19:00 +35°C° 0 mm 3 m/s 749 mmHg 19%
    20:00 +34°C° 0 mm 3 m/s 749 mmHg 20%
    21:00 +33°C° 0 mm 3 m/s 750 mmHg 22%
    22:00 +31°C° 0 mm 3 m/s 749 mmHg 22%
    23:00 +31°C° 0 mm 3 m/s 749 mmHg 23%
    Arată mai mult